Location: Waco, TX
(31.5480°N, 97.1670°W)
Time: 04:41:38
(UTC-06:00)

ISS - Pass Details

Date: 19 January 2019
Orbit: 404 x 407 km, 51.6° (Epoch: 16 January)

Event Time Altitude Azimuth Distance (km) Brightness Sun altitude
Rises 19:29:12 0° 221° (SW) 2,307 0.8 -20.7°
Reaches altitude 10° 19:31:17 10° 220° (SW) 1,452 -0.3 -21.1°
Enters shadow 19:33:49 51° 209° (SSW) 514 -3.2 -21.6°
Maximum altitude 19:34:31 78° 135° (SE) 416 - -21.8°
Drops below altitude 10° 19:37:48 10° 47° (NE) 1,462 - -22.5°
Sets 19:39:53 0° 46° (NE) 2,325 - -22.9°
